"Pseudo-MPEC" for C151AJ2

Created 2019 Oct 15 16:07:09 UT using Find_Orb

Click here for an explanation of pseudo-MPECs

 
 Astrometry: 
     C151AJ2  C2019 10 08.45561 05 00 41.32 +18 53 19.8    ~A8Bb 22.0 GVNEOCPG96
     C151AJ2  C2019 10 08.46075 05 00 41.91 +18 53 32.1    ~A8Bb 21.6 GVNEOCPG96
     C151AJ2  C2019 10 08.46590 05 00 42.40 +18 53 43.8    ~A8Bb 21.9 GVNEOCPG96
     C151AJ2  C2019 10 08.47105 05 00 42.99 +18 53 55.7    ~A8Bb 21.5 GVNEOCPG96
     C151AJ2  C2019 10 08.49423 05 00 45.50 +18 54 49.5    ~A8CM 21.2 GVNEOCPG96
     C151AJ2  C2019 10 08.49662 05 00 45.68 +18 54 55.4    ~A8CM 21.0 GVNEOCPG96
     C151AJ2  C2019 10 08.49905 05 00 46.00 +18 55 00.7    ~A8CM 21.9 GVNEOCPG96
     C151AJ2  C2019 10 08.50150 05 00 46.25 +18 55 06.6    ~A8CM 21.8 GVNEOCPG96
     C151AJ2 KC2019 10 09.MdKAstrometryYJ5xYQe;ZKOk0mRuredacted;2iD8O$Vj;AxC+H21
     C151AJ2 KC2019 10 09IV08TCit^clickJEhhereoV[GforQHjv`sTexplanationq7Df3BH21
     C151AJ2  C2019 10 10.40273 05 04 23.17 +20 10 17.0    ~AAA7 21.2 GVNEOCPG96
     C151AJ2  C2019 10 10.40418 05 04 23.29 +20 10 20.9    ~AAA7 21.7 GVNEOCPG96
     C151AJ2  C2019 10 10.40562 05 04 23.47 +20 10 24.9    ~AAA7 22.1 GVNEOCPG96
     C151AJ2  C2019 10 10.40707 05 04 23.62 +20 10 28.0    ~AAA7 21.4 GVNEOCPG96
     C151AJ2  C2019 10 11.47111 05 06 24.53 +20 54 04.5    ~ABBq 21.4 GVNEOCPI52
     C151AJ2  C2019 10 11.47611 05 06 25.07 +20 54 16.0    ~ABBq 23.2 GVNEOCPI52
     C151AJ2  C2019 10 11.47861 05 06 25.33 +20 54 22.5    ~ABBq 21.9 GVNEOCPI52

Station data:
(G96) Mt. Lemmon Survey  (N32.442754 W110.788720)  US/Arizona.  Observers T.
   A. Pruyne, B. M. Africano, E. J. Christensen, G. A. Farneth, D. C. Fuls,
   A. R. Gibbs, A. D. Grauer, H. Groeller, J. A. Johnson, R. A. Kowalski, S.
   M. Larson, G. J. Leonard, D. Rankin, R. L. Seaman, F. C. Shelly. 1.5-m
   reflector + 10K CCD.
(H21) Astronomical Research Observatory, Westfield  (N39.483057 W87.968270)
   US/Illinois. 0.76-m f/3.0 astrograph + CCD.
(I52) Steward Observatory, Mt. Lemmon Station  (N32.442547 W110.788920)
   US/Arizona.  Observers T. A. Pruyne, B. M. Africano, E. J. Christensen, G.
   A. Farneth, D. C. Fuls, A. R. Gibbs, A. D. Grauer, H. Groeller, J. A.
   Johnson, R. A. Kowalski, S. M. Larson, G. J. Leonard, D. Rankin, R. L.
   Seaman, F. C. Shelly. 1.0-m reflector + CCD.

Orbital elements:  C151AJ2
   Perihelion 2019 Dec 1.261638 +/- 0.64 TT =  6:16:45 (JD 2458818.761638)
Epoch 2019 Oct 11.0 TT = JDT 2458767.5   Earth MOID: 0.3568   Ma: 0.0568
M 344.91401103 +/- 0.7              (J2000 ecliptic)          AutoNEOCP
n   0.29429392 +/- 0.011            Peri.   36.54313 +/- 0.53
a   2.23845575 +/- 0.0558           Node    40.82830 +/- 0.16
e   0.4203721 +/- 0.0124            Incl.   23.94102 +/- 0.21
P   3.35                   H 20.9   G  0.15   U  9.7  
q 1.29747132 +/- 0.00499    Q 3.17944018 +/- 0.112
From 17 observations 2019 Oct. 8-11; mean residual 0".30
Residuals in arcseconds: 
191008 G96  .30+  .30-    191008 G96  .05-  .04-    191010 G96  .15+  .37+    
191008 G96  .77+  .08+    191008 G96  .27-  .19+    191010 G96  .04+  .06-    
191008 G96  .19-  .15-    191009 H21  .24-  .13+    191011 I52  .04+  .55+    
191008 G96  .27+  .19-    191009 H21  .04-  .10+    191011 I52  .02+  .39-    
191008 G96  .26+  .08-    191010 G96  .35+  .48-    191011 I52  .13-  .11-    
191008 G96  .86-  .29+    191010 G96  .18-  .12-    

Ephemerides (geocentric):
Date (UTC) HH   RA              Dec         delta   r     elong  mag " sig PA
---- -- -- --  -------------   -----------  ------ ------ -----  --- ---- ---
2019 10 15 16  05 14 24.316   +23 56 56.40  .55296 1.3736 122.1 21.8 3.49 136
2019 10 15 17  05 14 29.095   +23 58 50.71  .55266 1.3735 122.2 21.8 3.55 136
2019 10 15 18  05 14 33.874   +24 00 45.12  .55235 1.3733 122.2 21.8 3.60 136
2019 10 15 19  05 14 38.654   +24 02 39.65  .55205 1.3732 122.2 21.8 3.66 136
2019 10 15 20  05 14 43.434   +24 04 34.28  .55175 1.3731 122.2 21.8 3.72 136
2019 10 15 21  05 14 48.214   +24 06 29.02  .55145 1.3729 122.2 21.8 3.77 136
2019 10 15 22  05 14 52.995   +24 08 23.86  .55115 1.3728 122.3 21.8 3.83 136
2019 10 15 23  05 14 57.776   +24 10 18.82  .55085 1.3727 122.3 21.8 3.89 136
2019 10 16 00  05 15 02.557   +24 12 13.88  .55055 1.3725 122.3 21.8 3.95 136
2019 10 16 01  05 15 07.339   +24 14 09.05  .55025 1.3724 122.3 21.8 4.01 136
2019 10 16 02  05 15 12.121   +24 16 04.32  .54995 1.3723 122.3 21.8 4.07 137
2019 10 16 03  05 15 16.903   +24 17 59.70  .54965 1.3722 122.4 21.8 4.13 137
2019 10 16 04  05 15 21.685   +24 19 55.19  .54935 1.3720 122.4 21.8 4.19 137
2019 10 16 05  05 15 26.468   +24 21 50.79  .54905 1.3719 122.4 21.8 4.25 137
2019 10 16 06  05 15 31.251   +24 23 46.50  .54875 1.3718 122.4 21.8 4.31 137
2019 10 16 07  05 15 36.035   +24 25 42.31  .54845 1.3717 122.4 21.8 4.37 137
2019 10 16 08  05 15 40.818   +24 27 38.23  .54815 1.3715 122.5 21.8 4.43 137
2019 10 16 09  05 15 45.603   +24 29 34.26  .54785 1.3714 122.5 21.8 4.50 137
2019 10 16 10  05 15 50.387   +24 31 30.40  .54756 1.3713 122.5 21.8 4.56 137
2019 10 16 11  05 15 55.172   +24 33 26.64  .54726 1.3711 122.5 21.8 4.62 137
2019 10 16 12  05 15 59.957   +24 35 22.99  .54696 1.3710 122.5 21.8 4.69 137
2019 10 16 13  05 16 04.742   +24 37 19.45  .54666 1.3709 122.6 21.8 4.75 137
2019 10 16 14  05 16 09.528   +24 39 16.02  .54637 1.3708 122.6 21.8 4.82 137
2019 10 16 15  05 16 14.314   +24 41 12.69  .54607 1.3706 122.6 21.8 4.88 137
2019 10 16 16  05 16 19.100   +24 43 09.47  .54577 1.3705 122.6 21.8 4.95 137
2019 10 16 17  05 16 23.887   +24 45 06.36  .54548 1.3704 122.6 21.8 5.02 137
2019 10 16 18  05 16 28.674   +24 47 03.36  .54518 1.3703 122.7 21.8 5.09 137
2019 10 16 19  05 16 33.461   +24 49 00.47  .54489 1.3701 122.7 21.8 5.15 137
2019 10 16 20  05 16 38.249   +24 50 57.68  .54459 1.3700 122.7 21.8 5.22 137
2019 10 16 21  05 16 43.037   +24 52 55.00  .54430 1.3699 122.7 21.8 5.29 137
2019 10 16 22  05 16 47.825   +24 54 52.43  .54400 1.3697 122.7 21.8 5.36 137
2019 10 16 23  05 16 52.614   +24 56 49.97  .54371 1.3696 122.8 21.8 5.43 137
2019 10 17 00  05 16 57.403   +24 58 47.61  .54342 1.3695 122.8 21.8 5.50 137
2019 10 17 01  05 17 02.192   +25 00 45.37  .54312 1.3694 122.8 21.8 5.57 137
2019 10 17 02  05 17 06.982   +25 02 43.23  .54283 1.3692 122.8 21.8 5.64 137
2019 10 17 03  05 17 11.771   +25 04 41.20  .54254 1.3691 122.8 21.8 5.71 137
2019 10 17 04  05 17 16.562   +25 06 39.28  .54224 1.3690 122.9 21.8 5.79 137
2019 10 17 05  05 17 21.352   +25 08 37.46  .54195 1.3689 122.9 21.8 5.86 137
2019 10 17 06  05 17 26.143   +25 10 35.76  .54166 1.3687 122.9 21.8 5.93 137
2019 10 17 07  05 17 30.934   +25 12 34.16  .54137 1.3686 122.9 21.8 6.01 138
2019 10 17 08  05 17 35.726   +25 14 32.67  .54108 1.3685 122.9 21.8 6.08 138
2019 10 17 09  05 17 40.518   +25 16 31.29  .54079 1.3684 123.0 21.8 6.15 138
2019 10 17 10  05 17 45.310   +25 18 30.02  .54049 1.3682 123.0 21.8 6.23 138
2019 10 17 11  05 17 50.103   +25 20 28.85  .54020 1.3681 123.0 21.8 6.31 138
2019 10 17 12  05 17 54.896   +25 22 27.79  .53991 1.3680 123.0 21.8 6.38 138
2019 10 17 13  05 17 59.689   +25 24 26.85  .53962 1.3679 123.0 21.8 6.46 138
2019 10 17 14  05 18 04.483   +25 26 26.01  .53933 1.3677 123.1 21.8 6.54 138
2019 10 17 15  05 18 09.276   +25 28 25.28  .53904 1.3676 123.1 21.8 6.61 138